Regional Weather Roundup
Issued by NWS

Home | Current Version | Previous Version | Text Only | Print | Product List | Glossary On
Versions: 1 2 3 4 5 6 7 8 9 10 11 12 13 14 15 16 17 18 19 20 21 22 23 24 25 26 27 28 29 30 31 32 33 34 35 36 37 38 39 40 41 42 43 44 45 46 47 48 49 50
000
ASUS46 KLOX 282012
RWRCA

SOUTHERN CALIFORNIA WEATHER ROUNDUP
NATIONAL WEATHER SERVICE OXNARD CALIFORNIA
1200 PM PST SAT FEB 28 2015

NOTE: "FAIR" INDICATES FEW OR NO CLOUDS BELOW 12,000 FEET WITH NO
SIGNIFICANT WEATHER AND/OR OBSTRUCTIONS TO VISIBILITY.

  -  STATIONS PRECEEDED BY AN ASTERISK (*) ARE NOT NWS OR FAA
     STATIONS AND ARE NOT SUBJECT TO NWS AND FAA QUALITY CONTROL.

CAZ041-042-087-282100-
LA AND ORANGE COUNTY COASTAL AREAS


CITY           SKY/WX    TMP DP  RH WIND       PRES   REMARKS
L.A. DOWNTOWN  PTSUNNY   64  43  46 VRB3      29.86F
L.A. AIRPORT   PTSUNNY   60  45  57 W15       29.87S
LONG BEACH     CLOUDY    63  44  50 SW9       29.87F

CITY           SKY/WX    TMP DP  RH WIND       PRES   REMARKS
AVALON           N/A     61 N/A N/A MISG        N/A
FULLERTON      CLOUDY    63  44  50 S10G17    29.86F
*GETTY CENTER    N/A    N/A N/A N/A SW13G20     N/A
HAWTHORNE      PTSUNNY   62  43  49 W13G21    29.87F
*LEO CARRILLO    N/A     66  46  47 W10         N/A
*LOS ALAMITOS  PTSUNNY   63  47  55 SW13      29.87F
*REDONDO BEACH   N/A     65  48  53 S3        29.88F
SANTA ANA      CLOUDY    64  46  52 W8G17     29.88F
STA MONICA APT PTSUNNY   62  43  49 SW16G22   29.86F
TORRANCE       PTSUNNY   63  46  55 W8        29.88F
*UCLA            N/A     59  41  51 S12G21    29.82F

$$

CAZ547-548-048-282100-
LA COUNTY VALLEYS AND INLAND EMPIRE


CITY           SKY/WX    TMP DP  RH WIND       PRES   REMARKS
BURBANK        MOSUNNY   60  40  47 S7        29.84F
VAN NUYS       PTSUNNY   62  40  44 CALM      29.84F

CITY           SKY/WX    TMP DP  RH WIND       PRES   REMARKS
CORONA AIRPORT CLOUDY    60  45  57 SW12G18   29.87F
*CHATSWORTH      N/A     61  40  45 SW5       29.84F
CHINO          CLOUDY    61  47  59 SW15      29.87F
*CLAREMONT       N/A     57  40  54 S7          N/A
MARCH AFB      CLOUDY    55  45  69 W8        29.86F
*NORTHRIDGE      N/A     61  36  39 S5G12       N/A
ONTARIO        CLOUDY    58  43  57 SW10G22   29.86F
*PASADENA        N/A     63  45  51 E10         N/A
POMONA         PTSUNNY   57  41  54 SW12G18   29.89R
RIVERSIDE      CLOUDY    60  42  51 W12G17    29.86F
SAN BERNARDINO PTSUNNY   55  43  62 SE6       29.87S
*SAN GABRIEL     N/A     61  37  41 CALM      29.83F
*SAN RAFAEL HI   N/A     60  49  67 S7          N/A
*SAUGUS          N/A     52  41  67 S15         N/A
*WHITEMAN AP   PTSUNNY   57  39  51 SE5       29.88S
*WHITTIER HILL   N/A     60  44  55 SW10        N/A
*WOODLAND HILL   N/A     61  39  44 SW6G12      N/A

$$

CAZ054-055-282100-
LA AND SAN BERNARDINO COUNTY MOUNTAINS


CITY           SKY/WX    TMP DP  RH WIND       PRES   REMARKS
*ACTON           N/A     54  35  49 SW10        N/A
*BIG BEAR AIRP CLOUDY    32  28  86 W14G26    29.80F HAZE    WCI  22
*BIG PINES       N/A     30  26  83 W3          N/A
MT WILSON NWS    N/A     37  37 100 MISG        N/A
SANDBERG       CLOUDY    45  34  65 S14       29.80S
*WARM SPRINGS    N/A     44  37  76 SE6         N/A

$$

CAZ028-029-059-060-099-282100-
ANTELOPE VALLEY AND SURROUNDING AREAS


CITY           SKY/WX    TMP DP  RH WIND       PRES   REMARKS
LANCASTER      SUNNY     54  34  46 SW21      29.80F
PALMDALE       MOSUNNY   55  30  38 SW21G32   29.80F
*POPPY PARK      N/A     57  41  55 S16G29      N/A

CITY           SKY/WX    TMP DP  RH WIND       PRES   REMARKS
29 PALMS       MOSUNNY   60  29  30 W12G25    29.83F
BARSTOW/DAGGET MOSUNNY   62  30  29 SW25      29.76F
BISHOP         MOSUNNY   54   5  14 VRB5        N/A
CHINA LAKE     SUNNY     59  24  26 SW29G38   29.68F
EDWARDS AFB    MOSUNNY   57  31  37 SW20G29   29.76F
MOJAVE         FAIR      54  32  43 W16       29.78F
NEEDLES        PTSUNNY   70  32  24 SW17G28   29.73F
VICTORVILLE    MOSUNNY   55  34  44 S22G30    29.78F

$$

CAZ039-040-282100-
VENTURA AND SANTA BARBARA COUNTY COAST


CITY           SKY/WX    TMP DP  RH WIND       PRES   REMARKS
CAMARILLO      PTSUNNY   63  42  46 W17G25    29.85F
OXNARD AIRPORT SUNNY     63  44  50 W20       29.85F
*POINT MUGU    PTSUNNY   60  47  61 W18       29.87F
SBA APT/GOLETA MOSUNNY   62  47  57 W15G25    29.84F
*SANTA BARBARA   N/A     64  46  51 E5        29.92S
*VENTURA         N/A     62  42  47 SW10      29.87F

$$

CAZ044-045-282100-
VENTURA COUNTY VALLEYS


CITY           SKY/WX    TMP DP  RH WIND       PRES   REMARKS
*SIMI VALLEY     N/A     60  45  57 W6        29.83F
*OJAI            N/A     63  46  55 W1        29.78F
*FILLMORE        N/A     62  45  53 CALM      29.73F

$$

CAZ053-282100-
VENTURA COUNTY MOUNTAINS


CITY           SKY/WX    TMP DP  RH WIND       PRES   REMARKS
*LOCKWOOD VLY    N/A    N/A N/A N/A MISG        N/A
*ROSE VALLEY     N/A     50  39  66 MISG        N/A

$$

CAZ034-035-036-282100-
CENTRAL COAST AND SANTA YNEZ VALLEY


CITY           SKY/WX    TMP DP  RH WIND       PRES   REMARKS
SAN LUIS OBISP LGT RAIN  52  49  89 N7        29.84F
SANTA MARIA    PTSUNNY   61  44  53 W10       29.85F

CITY           SKY/WX    TMP DP  RH WIND       PRES   REMARKS
*CAL POLY SLO    N/A     55  48  76 W3          N/A
*LOMPOC        PTSUNNY   61  46  59 W16       29.87F
*PISMO BEACH     N/A     58  49  74 SW12      29.85F
*SANTA YNEZ    PTSUNNY   55  45  67 CALM      29.85F

$$

CAZ037-038-051-282100-
SAN LUIS OBISPO COUNTY INTERIOR AND CUYAMA VALLEY


CITY           SKY/WX    TMP DP  RH WIND       PRES   REMARKS
*CUYAMA          N/A     49  40  72 CALM      29.80F
PASO ROBLES    PTSUNNY   56  43  61 SW7       29.82F

$$

CAZ032-033-061-282100-
SOUTHERN DESERTS


CITY           SKY/WX    TMP DP  RH WIND       PRES   REMARKS
BLYTHE         MOSUNNY   72  37  28 SW23G31   29.78F
IMPERIAL       LGT RAIN  71  43  36 W22G29    29.81F
PALM SPRINGS   MOSUNNY   70  33  25 E15       29.79F
THERMAL        MOSUNNY   72  31  22 W25G39    29.76F HAZE

$$

ELSEWHERE ACROSS THE WESTERN UNITED STATES AND MEXICO


CITY           SKY/WX    TMP DP  RH WIND       PRES   REMARKS
DENVER, CO     PTSUNNY   19   9  65 N6        29.94F WCI  11
GRAND CANYON,  LGT SNOW  33  32  96 SW18      29.76S VSB 3/4 WCI  22
HONOLULU, HI   MOSUNNY   79  66  65 N12       29.97S
KAHULUI, MAUI  CLOUDY    73  70  88 N13       29.97F
LAKE TAHOE, CA LGT SNOW  35  26  69 N6        29.71R WCI  30
LAS VEGAS, NV  MOSUNNY   59  26  28 S17G36    29.66S
MAMMOTH LAKES, CLOUDY    37   5  25 NW8       29.68F WCI  31
MEXICO CITY, M MOSUNNY   75  30  19 NE9       30.26F
PHOENIX, AZ    CLOUDY    67  43  41 SW10      29.82F
PORTLAND, OR   SUNNY     54  25  32 E14G23    30.13S
RENO, NV       SNOW      36  33  89 NW9       29.76R VSB 1/2 WCI  29
SALT LAKE CITY CLOUDY    44  20  38 VRB5      29.69F
SAN DIEGO, CA  PTSUNNY   62  48  60 SW13      29.93F
SAN FRANCISCO, PTSUNNY   57  47  69 N5        29.80S
SAN JOSE, CA   PTSUNNY   57  45  64 W8        29.80F
SEATTLE, WA    MOSUNNY   51  26  37 N15       30.20R
TIJUANA, MEX   PTSUNNY   63  43  48 W14       29.94F

$$

STATION/POSITION TIME  TEMP    WIND        PRES    VSBY  WAVE
                       AIR SEA DIR/SP/G                  HT/PER
                 (UTC) (F)     (DEG/KT/KT) (MB)    (MI)  (FT/S)
POINT ARGUELLO B NOT AVBL
WEST SANTA BARBA 2000   55 59  230/  6/  8 1011.2F         6/ 8
POINT CONCEPTION NOT AVBL
EAST SANTA BARBA NOT AVBL
SANTA MONICA BAY 2000   58 62  250/ 14/ 17 1011.8F         4/ 5


USA.gov is the U.S. government's official web portal to all federal, state and local government web resources and services.